Location: Unspecified
(50.7822°N, 1.1356°W)
Time: 18:34:40
(UTC+01:00)

Resurs 1-4 Rocket - Visible Passes

Search period start: 20 June 2018 00:00
Search period end: 30 June 2018 00:00
Orbit: 800 x 813 km, 98.5° (Epoch: 19 June)

Date Brightness Start Highest point End Pass type
(mag) Time Alt. Az. Time Alt. Az. Time Alt. Az.
20 Jun 3.5 02:20:43 10° NNE 02:25:24 30° E 02:30:04 10° SSE visible
20 Jun 2.7 04:00:20 10° N 04:05:26 48° WNW 04:10:31 10° SW visible
21 Jun 4.1 01:56:41 10° NE 02:00:33 20° E 02:04:24 10° SE visible
21 Jun 2.2 03:35:37 10° NNE 03:40:57 73° WNW 03:46:15 10° SSW visible
22 Jun 4.4 01:33:21 10° ENE 01:35:36 13° E 01:37:50 10° ESE visible
22 Jun 2.3 03:11:00 10° NNE 03:16:22 75° ESE 03:21:34 11° S visible
23 Jun 2.8 02:46:31 10° NNE 02:51:42 48° E 02:56:40 11° S visible
24 Jun 3.5 02:22:12 10° NNE 02:26:57 31° E 02:31:39 10° SSE visible
24 Jun 2.7 04:01:52 10° N 04:06:58 46° WNW 04:12:01 10° SW visible
25 Jun 4.0 01:58:10 10° NE 02:02:06 21° E 02:06:01 10° SE visible
25 Jun 2.2 03:37:09 10° N 03:42:28 70° WNW 03:47:45 10° SSW visible
26 Jun 4.4 01:34:45 10° ENE 01:37:10 13° E 01:39:33 10° ESE visible
26 Jun 2.2 03:12:32 10° NNE 03:17:54 77° ESE 03:23:03 11° S visible
27 Jun 2.8 02:48:02 10° NNE 02:53:14 50° E 02:58:09 11° S visible
28 Jun 3.4 02:23:43 10° NNE 02:28:30 32° E 02:33:13 10° SSE visible
28 Jun 2.7 04:03:25 10° N 04:08:29 45° WNW 04:13:30 10° SW visible
29 Jun 4.0 01:59:39 10° NE 02:03:39 21° E 02:07:38 10° SE visible
29 Jun 2.3 03:38:41 10° N 03:43:59 68° WNW 03:49:15 10° SSW visible
